Location: Trout Lake
(45.9980°N, 121.5270°W)
Time: 20:32:24
(UTC-08:00)

USA 234 - Pass Details

Date: 06 December 2023
Orbit: 1099 x 1109 km, 123.0° (Epoch: 13 February)

Event Time Altitude Azimuth Distance (km) Brightness Sun altitude
Exits shadow 19:37:03 55° 346° (NNW) 1,319 3.6 -33.1°
Maximum altitude 19:37:24 55° 334° (NNW) 1,311 3.6 -33.2°
Drops below altitude 10° 19:43:46 10° 259° (W) 2,969 6.3 -34.3°
Sets 19:46:18 0° 255° (WSW) 3,925 7.1 -34.7°
